COSMOS 2499 DEB, 57759

Orbit data source: Space-Track

COSMOS 2499 DEB, 57759 is space debris in LEO originally from a launch on Fri, 23 May 2014 UTC launched from the Plesetsk Missile And Space Complex (PKMTR). Debris objects in space refer to the collection of defunct objects orbiting the Earth. Examples of debris include non-operational satellites, rocket bodies, and fragments generated from explosions, collisions, or faulty payload assembly.

Loading next visibility...
Identifier
57759, 2014-028BR
Orbit
LEO
Country
Flag of CISCIS
Related business
Manufacturer
TsNIIKhM
Mission
Spacecraft
Bus & Motor
Unknown
Mass
Unknown
Launch date (UTC)
2014-05-23 (12 years ago)
Launch vehicle
Unknown
Launch site
Plesetsk Missile And Space Complex (PKMTR)
Object type
Payload
Rocket body
Debris
Shape & HBR
Unknown shape, 0.1 m
Radar Cross Section
Large (>1 m²)

Expand to show TLE details & history
Last TLE update: 2 months ago

TLE from 2 months ago
0 COSMOS 2499 DEB
1 57759U 14028BR  25287.94220927 -.00001211  00000-0 -31125-2 0  9998
2 57759  82.2873  14.2395 0254855 110.9417 251.9176 13.07780503 37310
Epoch: 2025-10-14T22:36Z
TLE epoch observation values (Epoch: 2025-10-14T22:36:46.880Z)
Latitude
-0.00002°
Longitude
11.32076°
Altitude
1,299.169 km
Speed
7.176 km/s
True Right ascension
00h 56m 57s
True Declination
0° 00' 00"
Sunlit
Object was in full shadow at epoch
Visualization orbit readout
Latitude
Unknown
Longitude
Unknown
Altitude
Unknown
Speed
Unknown
Apparent Right ascension
Unknown
Apparent Declination
Unknown
Sunlit
N/A
Visualization observer readout
Local Sidereal Time
20:24:14
Azimuth
Unknown
Elevation
Unknown
Doppler factor
Unknown
Orbital elements
Apogee altitude
1,422.895 km
Perigee altitude
1,035.15 km
Semi-major axis
7,607.159 km
Eccentricity
0.02549
Inclination
82.2873°
RAAN
14.2395°
Arg. of periapsis
110.9417°
True anomaly
249.16966°
Mean anomaly
251.9176°
Eccentric anomaly
250.5408°
Mean motion
3.27122 °/min
Orbital period
110.05 mins
BSTAR
-0.0031125
Loading maneuver chart data...
Computing Atmospheric mass density...
Loading historical data...
Loading historical data...
Loading historical data...
Loading historical data...
Loading historical data...
Loading historical data...
Loading historical data...

Documentation

Showing up to 5 results
|